Highspire, PA

6:45 AM EST on February 13, 2016 (GMT -0500)
Harrisburg International

Weather History for KMDT - October, 2012

Change the Weather History Date:

Wednesday, October 10, 2012

  Actual Average Record
Temperature  
Mean Temperature 56 °F 56 °F  
Max Temperature 66 °F 66 °F 89 °F (1939)
Min Temperature 46 °F 46 °F 30 °F (1895)
Degree Days  
Heating Degree Days 9 9  
Month to date heating degree days 73 78  
Since 1 July heating degree days 126 150  
Cooling Degree Days 0 1  
Month to date cooling degree days 5 10  
Year to date cooling degree days 1226 1003  
Growing Degree Days 6 (Base 50)    
Moisture  
Dew Point 49 °F    
Average Humidity 71    
Maximum Humidity 93    
Minimum Humidity 48    
Precipitation  
Precipitation 0.05 in 0.12 in 4.02 in (2013)
Month to date precipitation 0.98 1.22  
Year to date precipitation 34.78 32.23  
Snow  
Snow 0.00 in 0.00 in T in (1979)
Month to date snowfall 0.0 0.0  
Since 1 July snowfall 0.0 0.0  
Since 1 September snowfall 0.0 0.0  
Snow Depth 0.00 in    
Sea Level Pressure  
Sea Level Pressure 29.98 in    
Wind  
Wind Speed 7 mph (WNW)    
Max Wind Speed 24 mph    
Max Gust Speed 30 mph    
Visibility 6 miles    
Events Rain    
T = Trace of Precipitation, MM = Missing Value Source: NWS Daily Summary

Daily Weather History Graph

Daily Weather History Graph

Search for Another Location

Airport or City:

Trip Planner

Search our weather history database for the weather conditions in past years. The results will help you decide how hot, cold, wet, or windy it might be!

Date:

Astronomy

Oct. 10, 2012 Rise Set
Actual Time 7:12 AM EDT 6:34 PM EDT
Civil Twilight 6:45 AM EDT 7:01 PM EDT
Nautical Twilight 6:14 AM EDT 7:32 PM EDT
Astronomical Twilight 5:42 AM EDT 8:04 PM EDT
Moon 1:46 AM EDT (10/10) 3:36 PM EDT (10/10)
Length of Visible Light 12h 15m
Length of Day
11h 21m
Waning Crescent, 27% of the Moon is Illuminated
Oct 10
Waning Crescent
Oct 15
New
Oct 21
First Quarter
Oct 29
Full
Nov 6
Last Quarter

Hourly Weather History & Observations

Time (EDT) Temp. Dew Point Humidity Pressure Visibility Wind Dir Wind Speed Gust Speed Precip Events Conditions
12:25 AM 53.6 °F 50.0 °F 88% 30.06 in 4.0 mi SE 3.5 mph - 0.00 in Rain Light Rain
12:33 AM 53.6 °F 50.0 °F 88% 30.05 in 2.0 mi ESE 4.6 mph - 0.00 in Rain Light Rain
12:37 AM 53.6 °F 51.8 °F 94% 30.05 in 2.0 mi SE 3.5 mph - 0.01 in Rain Light Rain
12:47 AM 53.6 °F 51.8 °F 94% 30.05 in 1.8 mi ESE 4.6 mph - 0.02 in Rain Light Rain
12:56 AM 53.1 °F 51.1 °F 93% 30.06 in 2.0 mi ESE 4.6 mph - 0.02 in Rain Light Rain
1:15 AM 53.6 °F 51.8 °F 94% 30.05 in 2.0 mi ESE 4.6 mph - 0.01 in Rain Light Rain
1:26 AM 53.6 °F 51.8 °F 94% 30.04 in 1.5 mi Calm Calm - 0.01 in Rain Light Rain
1:43 AM 53.6 °F 51.8 °F 94% 30.04 in 1.5 mi Calm Calm - 0.04 in Rain Light Rain
1:56 AM 53.1 °F 51.1 °F 93% 30.04 in 2.0 mi Calm Calm - 0.04 in Rain Light Rain
2:26 AM 53.6 °F 51.8 °F 94% 30.02 in 2.0 mi Calm Calm - 0.01 in Rain Light Rain
2:56 AM 53.1 °F 51.1 °F 93% 30.02 in 3.0 mi Calm Calm - 0.01 in   Overcast
3:56 AM 53.1 °F 51.1 °F 93% 30.00 in 2.5 mi Calm Calm - N/A   Overcast
4:26 AM 53.6 °F 51.8 °F 94% 29.98 in 3.0 mi East 4.6 mph - N/A   Overcast
4:56 AM 53.1 °F 52.0 °F 96% 29.99 in 3.0 mi South 3.5 mph - N/A   Overcast
5:56 AM 53.1 °F 52.0 °F 96% 29.99 in 3.0 mi Calm Calm - N/A   Overcast
6:15 AM 53.6 °F 51.8 °F 94% 29.98 in 4.0 mi Calm Calm - N/A   Overcast
6:56 AM 54.0 °F 52.0 °F 93% 29.99 in 4.0 mi Calm Calm - N/A   Overcast
7:41 AM 53.6 °F 51.8 °F 94% 29.97 in 2.5 mi NW 3.5 mph - N/A   Overcast
7:54 AM 53.6 °F 51.8 °F 94% 29.97 in 1.2 mi NW 4.6 mph - N/A   Overcast
7:56 AM 53.1 °F 52.0 °F 96% 29.98 in 1.2 mi NNW 5.8 mph - N/A   Overcast
8:29 AM 53.6 °F 51.8 °F 94% 29.98 in 2.0 mi NW 4.6 mph - N/A   Overcast
8:43 AM 53.6 °F 51.8 °F 94% 29.98 in 3.0 mi NW 4.6 mph - N/A   Overcast
8:56 AM 54.0 °F 52.0 °F 93% 29.98 in 3.0 mi WNW 5.8 mph - N/A   Overcast
9:54 AM 55.4 °F 51.8 °F 88% 29.96 in 5.0 mi WNW 6.9 mph - N/A   Mostly Cloudy
9:56 AM 55.9 °F 52.0 °F 87% 29.97 in 5.0 mi West 6.9 mph - N/A   Mostly Cloudy
10:19 AM 57.2 °F 51.8 °F 82% 29.96 in 6.0 mi Variable 3.5 mph - N/A   Haze
10:29 AM 57.2 °F 51.8 °F 82% 29.95 in 7.0 mi Calm Calm - N/A   Mostly Cloudy
10:41 AM 59.0 °F 51.8 °F 77% 29.95 in 7.0 mi Calm Calm - N/A   Mostly Cloudy
10:53 AM 59.0 °F 50.0 °F 72% 29.94 in 9.0 mi SW 5.8 mph - N/A   Scattered Clouds
10:56 AM 59.0 °F 51.1 °F 75% 29.95 in 9.0 mi WSW 5.8 mph - N/A   Scattered Clouds
11:31 AM 57.2 °F 48.2 °F 72% 29.94 in 10.0 mi WNW 5.8 mph - N/A   Overcast
11:40 AM 57.2 °F 48.2 °F 72% 29.94 in 10.0 mi WNW 8.1 mph - N/A   Mostly Cloudy
11:56 AM 61.0 °F 48.0 °F 62% 29.94 in 10.0 mi West 9.2 mph - N/A   Mostly Cloudy
12:56 PM 62.1 °F 46.0 °F 56% 29.92 in 10.0 mi WSW 6.9 mph - N/A   Mostly Cloudy
1:56 PM 61.0 °F 44.1 °F 54% 29.89 in 10.0 mi WNW 8.1 mph - N/A   Mostly Cloudy
2:56 PM 63.0 °F 45.0 °F 52% 29.86 in 10.0 mi SSE 6.9 mph - N/A   Scattered Clouds
3:56 PM 64.9 °F 45.0 °F 48% 29.84 in 10.0 mi West 6.9 mph - N/A   Scattered Clouds
4:56 PM 63.0 °F 46.0 °F 54% 29.84 in 10.0 mi West 6.9 mph - N/A   Mostly Cloudy
5:56 PM 62.1 °F 45.0 °F 53% 29.88 in 10.0 mi NW 18.4 mph 24.2 mph N/A   Overcast
6:56 PM 57.9 °F 46.0 °F 65% 29.93 in 10.0 mi NW 18.4 mph 23.0 mph N/A   Mostly Cloudy
7:56 PM 55.9 °F 44.1 °F 64% 29.96 in 10.0 mi West 8.1 mph - N/A   Scattered Clouds
8:56 PM 54.0 °F 39.9 °F 59% 29.99 in 10.0 mi WNW 15.0 mph - N/A   Clear
9:56 PM 51.1 °F 39.0 °F 63% 30.03 in 10.0 mi WNW 5.8 mph - N/A   Clear
10:56 PM 48.9 °F 37.9 °F 66% 30.05 in 10.0 mi NNW 3.5 mph - N/A   Clear
11:56 PM 48.0 °F 37.0 °F 66% 30.06 in 10.0 mi NNW 6.9 mph - N/A   Clear